Index of /20260429/WXO-DD/model_rdps/10km/12/070
Name Last modified Size Description
Parent Directory -
20260429T12Z_MSC_RDPS_AbsoluteVorticity_IsbL-0250_RLatLon0.09_PT070H.grib2 2026-04-29 15:03 599K
20260429T12Z_MSC_RDPS_AbsoluteVorticity_IsbL-0500_RLatLon0.09_PT070H.grib2 2026-04-29 15:03 564K
20260429T12Z_MSC_RDPS_AbsoluteVorticity_IsbL-0700_RLatLon0.09_PT070H.grib2 2026-04-29 15:03 617K
20260429T12Z_MSC_RDPS_AbsoluteVorticity_IsbL-0850_RLatLon0.09_PT070H.grib2 2026-04-29 15:03 780K
20260429T12Z_MSC_RDPS_AirTemp_AGL-120m_RLatLon0.09_PT070H.grib2 2026-04-29 15:03 379K
20260429T12Z_MSC_RDPS_AirTemp_AGL-2m_RLatLon0.09_PT070H.grib2 2026-04-29 15:03 630K
20260429T12Z_MSC_RDPS_AirTemp_AGL-40m_RLatLon0.09_PT070H.grib2 2026-04-29 15:03 396K
20260429T12Z_MSC_RDPS_AirTemp_AGL-80m_RLatLon0.09_PT070H.grib2 2026-04-29 15:03 386K
20260429T12Z_MSC_RDPS_AirTemp_IsbL-0001_RLatLon0.09_PT070H.grib2 2026-04-29 15:03 299K
20260429T12Z_MSC_RDPS_AirTemp_IsbL-0005_RLatLon0.09_PT070H.grib2 2026-04-29 15:03 288K
20260429T12Z_MSC_RDPS_AirTemp_IsbL-0010_RLatLon0.09_PT070H.grib2 2026-04-29 15:03 299K
20260429T12Z_MSC_RDPS_AirTemp_IsbL-0020_RLatLon0.09_PT070H.grib2 2026-04-29 15:03 406K
20260429T12Z_MSC_RDPS_AirTemp_IsbL-0030_RLatLon0.09_PT070H.grib2 2026-04-29 15:03 335K
20260429T12Z_MSC_RDPS_AirTemp_IsbL-0050_RLatLon0.09_PT070H.grib2 2026-04-29 15:03 313K
20260429T12Z_MSC_RDPS_AirTemp_IsbL-0100_RLatLon0.09_PT070H.grib2 2026-04-29 15:03 390K
20260429T12Z_MSC_RDPS_AirTemp_IsbL-0150_RLatLon0.09_PT070H.grib2 2026-04-29 15:03 417K
20260429T12Z_MSC_RDPS_AirTemp_IsbL-0175_RLatLon0.09_PT070H.grib2 2026-04-29 15:03 409K
20260429T12Z_MSC_RDPS_AirTemp_IsbL-0200_RLatLon0.09_PT070H.grib2 2026-04-29 15:03 413K
20260429T12Z_MSC_RDPS_AirTemp_IsbL-0225_RLatLon0.09_PT070H.grib2 2026-04-29 15:03 410K
20260429T12Z_MSC_RDPS_AirTemp_IsbL-0250_RLatLon0.09_PT070H.grib2 2026-04-29 15:03 414K
20260429T12Z_MSC_RDPS_AirTemp_IsbL-0275_RLatLon0.09_PT070H.grib2 2026-04-29 15:03 398K
20260429T12Z_MSC_RDPS_AirTemp_IsbL-0300_RLatLon0.09_PT070H.grib2 2026-04-29 15:03 407K
20260429T12Z_MSC_RDPS_AirTemp_IsbL-0350_RLatLon0.09_PT070H.grib2 2026-04-29 15:03 422K
20260429T12Z_MSC_RDPS_AirTemp_IsbL-0400_RLatLon0.09_PT070H.grib2 2026-04-29 15:03 389K
20260429T12Z_MSC_RDPS_AirTemp_IsbL-0450_RLatLon0.09_PT070H.grib2 2026-04-29 15:03 397K
20260429T12Z_MSC_RDPS_AirTemp_IsbL-0500_RLatLon0.09_PT070H.grib2 2026-04-29 15:03 407K
20260429T12Z_MSC_RDPS_AirTemp_IsbL-0550_RLatLon0.09_PT070H.grib2 2026-04-29 15:03 425K
20260429T12Z_MSC_RDPS_AirTemp_IsbL-0600_RLatLon0.09_PT070H.grib2 2026-04-29 15:03 444K
20260429T12Z_MSC_RDPS_AirTemp_IsbL-0650_RLatLon0.09_PT070H.grib2 2026-04-29 15:03 455K
20260429T12Z_MSC_RDPS_AirTemp_IsbL-0700_RLatLon0.09_PT070H.grib2 2026-04-29 15:03 482K
20260429T12Z_MSC_RDPS_AirTemp_IsbL-0750_RLatLon0.09_PT070H.grib2 2026-04-29 15:03 521K
20260429T12Z_MSC_RDPS_AirTemp_IsbL-0800_RLatLon0.09_PT070H.grib2 2026-04-29 15:03 454K
20260429T12Z_MSC_RDPS_AirTemp_IsbL-0850_RLatLon0.09_PT070H.grib2 2026-04-29 15:03 505K
20260429T12Z_MSC_RDPS_AirTemp_IsbL-0875_RLatLon0.09_PT070H.grib2 2026-04-29 15:03 525K
20260429T12Z_MSC_RDPS_AirTemp_IsbL-0900_RLatLon0.09_PT070H.grib2 2026-04-29 15:03 531K
20260429T12Z_MSC_RDPS_AirTemp_IsbL-0925_RLatLon0.09_PT070H.grib2 2026-04-29 15:03 524K
20260429T12Z_MSC_RDPS_AirTemp_IsbL-0950_RLatLon0.09_PT070H.grib2 2026-04-29 15:03 529K
20260429T12Z_MSC_RDPS_AirTemp_IsbL-0970_RLatLon0.09_PT070H.grib2 2026-04-29 15:03 524K
20260429T12Z_MSC_RDPS_AirTemp_IsbL-0985_RLatLon0.09_PT070H.grib2 2026-04-29 15:03 512K
20260429T12Z_MSC_RDPS_AirTemp_IsbL-1000_RLatLon0.09_PT070H.grib2 2026-04-29 15:03 496K
20260429T12Z_MSC_RDPS_AirTemp_IsbL-1015_RLatLon0.09_PT070H.grib2 2026-04-29 15:03 490K
20260429T12Z_MSC_RDPS_Albedo_Sfc_RLatLon0.09_PT070H.grib2 2026-04-29 15:03 158K
20260429T12Z_MSC_RDPS_CAPE_Sfc_RLatLon0.09_PT070H.grib2 2026-04-29 15:03 1.5M
20260429T12Z_MSC_RDPS_CIN_Sfc_RLatLon0.09_PT070H.grib2 2026-04-29 15:03 1.1M
20260429T12Z_MSC_RDPS_CloudWater_EAtm_RLatLon0.09_PT070H.grib2 2026-04-29 15:03 220K
20260429T12Z_MSC_RDPS_ConvectivePrecip-Accum_Sfc_RLatLon0.09_PT070H.grib2 2026-04-29 15:03 1.2M
20260429T12Z_MSC_RDPS_DewPointDepression_AGL-2m_RLatLon0.09_PT070H.grib2 2026-04-29 15:03 394K
20260429T12Z_MSC_RDPS_DewPointDepression_IsbL-0001_RLatLon0.09_PT070H.grib2 2026-04-29 15:03 193
20260429T12Z_MSC_RDPS_DewPointDepression_IsbL-0005_RLatLon0.09_PT070H.grib2 2026-04-29 15:03 193
20260429T12Z_MSC_RDPS_DewPointDepression_IsbL-0010_RLatLon0.09_PT070H.grib2 2026-04-29 15:03 193
20260429T12Z_MSC_RDPS_DewPointDepression_IsbL-0020_RLatLon0.09_PT070H.grib2 2026-04-29 15:03 193
20260429T12Z_MSC_RDPS_DewPointDepression_IsbL-0030_RLatLon0.09_PT070H.grib2 2026-04-29 15:03 193
20260429T12Z_MSC_RDPS_DewPointDepression_IsbL-0050_RLatLon0.09_PT070H.grib2 2026-04-29 15:03 79K
20260429T12Z_MSC_RDPS_DewPointDepression_IsbL-0100_RLatLon0.09_PT070H.grib2 2026-04-29 15:03 123K
20260429T12Z_MSC_RDPS_DewPointDepression_IsbL-0150_RLatLon0.09_PT070H.grib2 2026-04-29 15:03 150K
20260429T12Z_MSC_RDPS_DewPointDepression_IsbL-0175_RLatLon0.09_PT070H.grib2 2026-04-29 15:03 183K
20260429T12Z_MSC_RDPS_DewPointDepression_IsbL-0200_RLatLon0.09_PT070H.grib2 2026-04-29 15:03 218K
20260429T12Z_MSC_RDPS_DewPointDepression_IsbL-0225_RLatLon0.09_PT070H.grib2 2026-04-29 15:03 253K
20260429T12Z_MSC_RDPS_DewPointDepression_IsbL-0250_RLatLon0.09_PT070H.grib2 2026-04-29 15:03 289K
20260429T12Z_MSC_RDPS_DewPointDepression_IsbL-0275_RLatLon0.09_PT070H.grib2 2026-04-29 15:03 298K
20260429T12Z_MSC_RDPS_DewPointDepression_IsbL-0300_RLatLon0.09_PT070H.grib2 2026-04-29 15:03 316K
20260429T12Z_MSC_RDPS_DewPointDepression_IsbL-0350_RLatLon0.09_PT070H.grib2 2026-04-29 15:03 321K
20260429T12Z_MSC_RDPS_DewPointDepression_IsbL-0400_RLatLon0.09_PT070H.grib2 2026-04-29 15:03 335K
20260429T12Z_MSC_RDPS_DewPointDepression_IsbL-0450_RLatLon0.09_PT070H.grib2 2026-04-29 15:03 347K
20260429T12Z_MSC_RDPS_DewPointDepression_IsbL-0500_RLatLon0.09_PT070H.grib2 2026-04-29 15:03 356K
20260429T12Z_MSC_RDPS_DewPointDepression_IsbL-0550_RLatLon0.09_PT070H.grib2 2026-04-29 15:03 365K
20260429T12Z_MSC_RDPS_DewPointDepression_IsbL-0600_RLatLon0.09_PT070H.grib2 2026-04-29 15:03 376K
20260429T12Z_MSC_RDPS_DewPointDepression_IsbL-0650_RLatLon0.09_PT070H.grib2 2026-04-29 15:03 377K
20260429T12Z_MSC_RDPS_DewPointDepression_IsbL-0700_RLatLon0.09_PT070H.grib2 2026-04-29 15:03 385K
20260429T12Z_MSC_RDPS_DewPointDepression_IsbL-0750_RLatLon0.09_PT070H.grib2 2026-04-29 15:03 405K
20260429T12Z_MSC_RDPS_DewPointDepression_IsbL-0800_RLatLon0.09_PT070H.grib2 2026-04-29 15:03 440K
20260429T12Z_MSC_RDPS_DewPointDepression_IsbL-0850_RLatLon0.09_PT070H.grib2 2026-04-29 15:03 471K
20260429T12Z_MSC_RDPS_DewPointDepression_IsbL-0875_RLatLon0.09_PT070H.grib2 2026-04-29 15:03 473K
20260429T12Z_MSC_RDPS_DewPointDepression_IsbL-0900_RLatLon0.09_PT070H.grib2 2026-04-29 15:03 461K
20260429T12Z_MSC_RDPS_DewPointDepression_IsbL-0925_RLatLon0.09_PT070H.grib2 2026-04-29 15:03 446K
20260429T12Z_MSC_RDPS_DewPointDepression_IsbL-0950_RLatLon0.09_PT070H.grib2 2026-04-29 15:03 442K
20260429T12Z_MSC_RDPS_DewPointDepression_IsbL-0970_RLatLon0.09_PT070H.grib2 2026-04-29 15:03 435K
20260429T12Z_MSC_RDPS_DewPointDepression_IsbL-0985_RLatLon0.09_PT070H.grib2 2026-04-29 15:03 429K
20260429T12Z_MSC_RDPS_DewPointDepression_IsbL-1000_RLatLon0.09_PT070H.grib2 2026-04-29 15:03 425K
20260429T12Z_MSC_RDPS_DewPointDepression_IsbL-1015_RLatLon0.09_PT070H.grib2 2026-04-29 15:03 416K
20260429T12Z_MSC_RDPS_DewPoint_AGL-2m_RLatLon0.09_PT070H.grib2 2026-04-29 15:03 396K
20260429T12Z_MSC_RDPS_DownwardLongwaveRadiationFlux-Accum_Sfc_RLatLon0.09_PT070H.grib2 2026-04-29 15:03 420K
20260429T12Z_MSC_RDPS_DownwardShortwaveRadiationFlux-Accum_NTAtm_RLatLon0.09_PT070H.grib2 2026-04-29 15:03 157K
20260429T12Z_MSC_RDPS_DownwardShortwaveRadiationFlux-Accum_Sfc_RLatLon0.09_PT070H.grib2 2026-04-29 15:03 612K
20260429T12Z_MSC_RDPS_FreezingRain-Accum1h_Sfc_RLatLon0.09_PT070H.grib2 2026-04-29 15:03 45K
20260429T12Z_MSC_RDPS_FreezingRain-Accum_Sfc_RLatLon0.09_PT070H.grib2 2026-04-29 15:03 210K
20260429T12Z_MSC_RDPS_GeopotentialHeight_IsbL-0001_RLatLon0.09_PT070H.grib2 2026-04-29 15:03 342K
20260429T12Z_MSC_RDPS_GeopotentialHeight_IsbL-0005_RLatLon0.09_PT070H.grib2 2026-04-29 15:03 306K
20260429T12Z_MSC_RDPS_GeopotentialHeight_IsbL-0010_RLatLon0.09_PT070H.grib2 2026-04-29 15:03 308K
20260429T12Z_MSC_RDPS_GeopotentialHeight_IsbL-0020_RLatLon0.09_PT070H.grib2 2026-04-29 15:03 307K
20260429T12Z_MSC_RDPS_GeopotentialHeight_IsbL-0030_RLatLon0.09_PT070H.grib2 2026-04-29 15:03 309K
20260429T12Z_MSC_RDPS_GeopotentialHeight_IsbL-0050_RLatLon0.09_PT070H.grib2 2026-04-29 15:03 311K
20260429T12Z_MSC_RDPS_GeopotentialHeight_IsbL-0100_RLatLon0.09_PT070H.grib2 2026-04-29 15:03 287K
20260429T12Z_MSC_RDPS_GeopotentialHeight_IsbL-0150_RLatLon0.09_PT070H.grib2 2026-04-29 15:03 230K
20260429T12Z_MSC_RDPS_GeopotentialHeight_IsbL-0175_RLatLon0.09_PT070H.grib2 2026-04-29 15:03 233K
20260429T12Z_MSC_RDPS_GeopotentialHeight_IsbL-0200_RLatLon0.09_PT070H.grib2 2026-04-29 15:03 266K
20260429T12Z_MSC_RDPS_GeopotentialHeight_IsbL-0225_RLatLon0.09_PT070H.grib2 2026-04-29 15:03 267K
20260429T12Z_MSC_RDPS_GeopotentialHeight_IsbL-0250_RLatLon0.09_PT070H.grib2 2026-04-29 15:03 267K
20260429T12Z_MSC_RDPS_GeopotentialHeight_IsbL-0275_RLatLon0.09_PT070H.grib2 2026-04-29 15:03 266K
20260429T12Z_MSC_RDPS_GeopotentialHeight_IsbL-0300_RLatLon0.09_PT070H.grib2 2026-04-29 15:03 266K
20260429T12Z_MSC_RDPS_GeopotentialHeight_IsbL-0350_RLatLon0.09_PT070H.grib2 2026-04-29 15:03 231K
20260429T12Z_MSC_RDPS_GeopotentialHeight_IsbL-0400_RLatLon0.09_PT070H.grib2 2026-04-29 15:03 228K
20260429T12Z_MSC_RDPS_GeopotentialHeight_IsbL-0450_RLatLon0.09_PT070H.grib2 2026-04-29 15:03 297K
20260429T12Z_MSC_RDPS_GeopotentialHeight_IsbL-0500_RLatLon0.09_PT070H.grib2 2026-04-29 15:03 293K
20260429T12Z_MSC_RDPS_GeopotentialHeight_IsbL-0550_RLatLon0.09_PT070H.grib2 2026-04-29 15:03 289K
20260429T12Z_MSC_RDPS_GeopotentialHeight_IsbL-0600_RLatLon0.09_PT070H.grib2 2026-04-29 15:03 286K
20260429T12Z_MSC_RDPS_GeopotentialHeight_IsbL-0650_RLatLon0.09_PT070H.grib2 2026-04-29 15:03 256K
20260429T12Z_MSC_RDPS_GeopotentialHeight_IsbL-0700_RLatLon0.09_PT070H.grib2 2026-04-29 15:03 254K
20260429T12Z_MSC_RDPS_GeopotentialHeight_IsbL-0750_RLatLon0.09_PT070H.grib2 2026-04-29 15:03 340K
20260429T12Z_MSC_RDPS_GeopotentialHeight_IsbL-0800_RLatLon0.09_PT070H.grib2 2026-04-29 15:03 348K
20260429T12Z_MSC_RDPS_GeopotentialHeight_IsbL-0850_RLatLon0.09_PT070H.grib2 2026-04-29 15:03 359K
20260429T12Z_MSC_RDPS_GeopotentialHeight_IsbL-0875_RLatLon0.09_PT070H.grib2 2026-04-29 15:03 361K
20260429T12Z_MSC_RDPS_GeopotentialHeight_IsbL-0900_RLatLon0.09_PT070H.grib2 2026-04-29 15:03 365K
20260429T12Z_MSC_RDPS_GeopotentialHeight_IsbL-0925_RLatLon0.09_PT070H.grib2 2026-04-29 15:03 367K
20260429T12Z_MSC_RDPS_GeopotentialHeight_IsbL-0950_RLatLon0.09_PT070H.grib2 2026-04-29 15:03 370K
20260429T12Z_MSC_RDPS_GeopotentialHeight_IsbL-0970_RLatLon0.09_PT070H.grib2 2026-04-29 15:03 377K
20260429T12Z_MSC_RDPS_GeopotentialHeight_IsbL-0985_RLatLon0.09_PT070H.grib2 2026-04-29 15:03 385K
20260429T12Z_MSC_RDPS_GeopotentialHeight_IsbL-1000_RLatLon0.09_PT070H.grib2 2026-04-29 15:03 397K
20260429T12Z_MSC_RDPS_GeopotentialHeight_IsbL-1015_RLatLon0.09_PT070H.grib2 2026-04-29 15:03 412K
20260429T12Z_MSC_RDPS_Humidex_Sfc_RLatLon0.09_PT070H.grib2 2026-04-29 15:03 2.4M
20260429T12Z_MSC_RDPS_IcePellets-Accum1h_Sfc_RLatLon0.09_PT070H.grib2 2026-04-29 15:03 6.3K
20260429T12Z_MSC_RDPS_IcePellets-Accum_Sfc_RLatLon0.09_PT070H.grib2 2026-04-29 15:03 30K
20260429T12Z_MSC_RDPS_KIndex_Sfc_RLatLon0.09_PT070H.grib2 2026-04-29 15:03 2.5M
20260429T12Z_MSC_RDPS_LatentHeatNetFlux_Sfc_RLatLon0.09_PT070H.grib2 2026-04-29 15:03 320K
20260429T12Z_MSC_RDPS_LiftedIndex-MU-VT_IsbL-0500_RLatLon0.09_PT070H.grib2 2026-04-29 15:03 2.4M
20260429T12Z_MSC_RDPS_NetLongwaveRadiationFlux-Accum_Sfc_RLatLon0.09_PT070H.grib2 2026-04-29 15:03 600K
20260429T12Z_MSC_RDPS_NetShortwaveRadiationFlux-Accum_Sfc_RLatLon0.09_PT070H.grib2 2026-04-29 15:03 614K
20260429T12Z_MSC_RDPS_PlanetaryBoundaryLayerHeight_Sfc_RLatLon0.09_PT070H.grib2 2026-04-29 15:03 1.1M
20260429T12Z_MSC_RDPS_Precip-Accum1h_Sfc_RLatLon0.09_PT070H.grib2 2026-04-29 15:03 1.3M
20260429T12Z_MSC_RDPS_Precip-Accum_Sfc_RLatLon0.09_PT070H.grib2 2026-04-29 15:03 2.1M
20260429T12Z_MSC_RDPS_PrecipRate_Sfc_RLatLon0.09_PT070H.grib2 2026-04-29 15:03 196K
20260429T12Z_MSC_RDPS_PrecipType-Instant_Sfc_RLatLon0.09_PT070H.grib2 2026-04-29 15:03 621K
20260429T12Z_MSC_RDPS_Pressure-Trend3h_Sfc_RLatLon0.09_PT070H.grib2 2026-04-29 15:03 1.2M
20260429T12Z_MSC_RDPS_Pressure_MSL_RLatLon0.09_PT070H.grib2 2026-04-29 15:03 326K
20260429T12Z_MSC_RDPS_Pressure_PVU-1.5_RLatLon0.09_PT070H.grib2 2026-04-29 15:03 2.3M
20260429T12Z_MSC_RDPS_Pressure_PVU-1_RLatLon0.09_PT070H.grib2 2026-04-29 15:03 2.4M
20260429T12Z_MSC_RDPS_Pressure_PVU-2_RLatLon0.09_PT070H.grib2 2026-04-29 15:03 2.4M
20260429T12Z_MSC_RDPS_Pressure_Sfc_RLatLon0.09_PT070H.grib2 2026-04-29 15:03 500K
20260429T12Z_MSC_RDPS_RadiativeTemp_Sfc_RLatLon0.09_PT070H.grib2 2026-04-29 15:03 309K
20260429T12Z_MSC_RDPS_Rain-Accum1h_Sfc_RLatLon0.09_PT070H.grib2 2026-04-29 15:03 635K
20260429T12Z_MSC_RDPS_Rain-Accum_Sfc_RLatLon0.09_PT070H.grib2 2026-04-29 15:03 1.7M
20260429T12Z_MSC_RDPS_RelativeHumidity_AGL-2m_RLatLon0.09_PT070H.grib2 2026-04-29 15:03 1.0M
20260429T12Z_MSC_RDPS_RelativeHumidity_IsbL-0010_RLatLon0.09_PT070H.grib2 2026-04-29 15:03 624K
20260429T12Z_MSC_RDPS_RelativeHumidity_IsbL-0020_RLatLon0.09_PT070H.grib2 2026-04-29 15:03 665K
20260429T12Z_MSC_RDPS_RelativeHumidity_IsbL-0030_RLatLon0.09_PT070H.grib2 2026-04-29 15:03 602K
20260429T12Z_MSC_RDPS_RelativeHumidity_IsbL-0050_RLatLon0.09_PT070H.grib2 2026-04-29 15:03 364K
20260429T12Z_MSC_RDPS_RelativeHumidity_IsbL-0100_RLatLon0.09_PT070H.grib2 2026-04-29 15:03 273K
20260429T12Z_MSC_RDPS_RelativeHumidity_IsbL-0150_RLatLon0.09_PT070H.grib2 2026-04-29 15:03 399K
20260429T12Z_MSC_RDPS_RelativeHumidity_IsbL-0175_RLatLon0.09_PT070H.grib2 2026-04-29 15:03 465K
20260429T12Z_MSC_RDPS_RelativeHumidity_IsbL-0200_RLatLon0.09_PT070H.grib2 2026-04-29 15:03 550K
20260429T12Z_MSC_RDPS_RelativeHumidity_IsbL-0225_RLatLon0.09_PT070H.grib2 2026-04-29 15:03 616K
20260429T12Z_MSC_RDPS_RelativeHumidity_IsbL-0250_RLatLon0.09_PT070H.grib2 2026-04-29 15:03 677K
20260429T12Z_MSC_RDPS_RelativeHumidity_IsbL-0275_RLatLon0.09_PT070H.grib2 2026-04-29 15:03 696K
20260429T12Z_MSC_RDPS_RelativeHumidity_IsbL-0300_RLatLon0.09_PT070H.grib2 2026-04-29 15:03 735K
20260429T12Z_MSC_RDPS_RelativeHumidity_IsbL-0350_RLatLon0.09_PT070H.grib2 2026-04-29 15:03 757K
20260429T12Z_MSC_RDPS_RelativeHumidity_IsbL-0400_RLatLon0.09_PT070H.grib2 2026-04-29 15:03 777K
20260429T12Z_MSC_RDPS_RelativeHumidity_IsbL-0450_RLatLon0.09_PT070H.grib2 2026-04-29 15:03 792K
20260429T12Z_MSC_RDPS_RelativeHumidity_IsbL-0500_RLatLon0.09_PT070H.grib2 2026-04-29 15:03 803K
20260429T12Z_MSC_RDPS_RelativeHumidity_IsbL-0550_RLatLon0.09_PT070H.grib2 2026-04-29 15:03 824K
20260429T12Z_MSC_RDPS_RelativeHumidity_IsbL-0600_RLatLon0.09_PT070H.grib2 2026-04-29 15:03 842K
20260429T12Z_MSC_RDPS_RelativeHumidity_IsbL-0650_RLatLon0.09_PT070H.grib2 2026-04-29 15:03 848K
20260429T12Z_MSC_RDPS_RelativeHumidity_IsbL-0700_RLatLon0.09_PT070H.grib2 2026-04-29 15:03 869K
20260429T12Z_MSC_RDPS_RelativeHumidity_IsbL-0750_RLatLon0.09_PT070H.grib2 2026-04-29 15:03 918K
20260429T12Z_MSC_RDPS_RelativeHumidity_IsbL-0800_RLatLon0.09_PT070H.grib2 2026-04-29 15:03 1.0M
20260429T12Z_MSC_RDPS_RelativeHumidity_IsbL-0850_RLatLon0.09_PT070H.grib2 2026-04-29 15:03 1.0M
20260429T12Z_MSC_RDPS_RelativeHumidity_IsbL-0875_RLatLon0.09_PT070H.grib2 2026-04-29 15:03 1.1M
20260429T12Z_MSC_RDPS_RelativeHumidity_IsbL-0900_RLatLon0.09_PT070H.grib2 2026-04-29 15:03 1.1M
20260429T12Z_MSC_RDPS_RelativeHumidity_IsbL-0925_RLatLon0.09_PT070H.grib2 2026-04-29 15:03 1.1M
20260429T12Z_MSC_RDPS_RelativeHumidity_IsbL-0950_RLatLon0.09_PT070H.grib2 2026-04-29 15:03 1.1M
20260429T12Z_MSC_RDPS_RelativeHumidity_IsbL-0970_RLatLon0.09_PT070H.grib2 2026-04-29 15:03 1.1M
20260429T12Z_MSC_RDPS_RelativeHumidity_IsbL-0985_RLatLon0.09_PT070H.grib2 2026-04-29 15:03 1.0M
20260429T12Z_MSC_RDPS_RelativeHumidity_IsbL-1000_RLatLon0.09_PT070H.grib2 2026-04-29 15:03 1.0M
20260429T12Z_MSC_RDPS_RelativeHumidity_IsbL-1015_RLatLon0.09_PT070H.grib2 2026-04-29 15:03 1.0M
20260429T12Z_MSC_RDPS_Runoff-Accum_Sfc_RLatLon0.09_PT070H.grib2 2026-04-29 15:03 65K
20260429T12Z_MSC_RDPS_SWEATIndex_Sfc_RLatLon0.09_PT070H.grib2 2026-04-29 15:03 2.4M
20260429T12Z_MSC_RDPS_SeeingIndex_EAtm_RLatLon0.09_PT070H.grib2 2026-04-29 15:03 1.0M
20260429T12Z_MSC_RDPS_SensibleHeatNetFlux_Sfc_RLatLon0.09_PT070H.grib2 2026-04-29 15:03 299K
20260429T12Z_MSC_RDPS_ShowalterIndex_IsbL-0500_RLatLon0.09_PT070H.grib2 2026-04-29 15:03 2.6M
20260429T12Z_MSC_RDPS_SkyTransparencyIndex_EAtm_RLatLon0.09_PT070H.grib2 2026-04-29 15:03 705K
20260429T12Z_MSC_RDPS_Snow-Accum1h_Sfc_RLatLon0.09_PT070H.grib2 2026-04-29 15:03 411K
20260429T12Z_MSC_RDPS_Snow-Accum_Sfc_RLatLon0.09_PT070H.grib2 2026-04-29 15:03 790K
20260429T12Z_MSC_RDPS_SnowDensity_Sfc_RLatLon0.09_PT070H.grib2 2026-04-29 15:03 178K
20260429T12Z_MSC_RDPS_SnowDepth_Sfc_RLatLon0.09_PT070H.grib2 2026-04-29 15:03 671K
20260429T12Z_MSC_RDPS_SoilTemp_DBS-0to10cm_RLatLon0.09_PT070H.grib2 2026-04-29 15:03 241K
20260429T12Z_MSC_RDPS_SoilTemp_Sfc_RLatLon0.09_PT070H.grib2 2026-04-29 15:03 272K
20260429T12Z_MSC_RDPS_SoilVolumetricIceContent_Sfc_RLatLon0.09_PT070H.grib2 2026-04-29 15:03 161K
20260429T12Z_MSC_RDPS_SoilVolumetricWaterContent_DBS-0to10cm_RLatLon0.09_PT070H.grib2 2026-04-29 15:03 272K
20260429T12Z_MSC_RDPS_SoilVolumetricWaterContent_DBS-0to1cm_RLatLon0.09_PT070H.grib2 2026-04-29 15:03 340K
20260429T12Z_MSC_RDPS_SpecificHumidity_AGL-120m_RLatLon0.09_PT070H.grib2 2026-04-29 15:03 489K
20260429T12Z_MSC_RDPS_SpecificHumidity_AGL-2m_RLatLon0.09_PT070H.grib2 2026-04-29 15:03 656K
20260429T12Z_MSC_RDPS_SpecificHumidity_AGL-40m_RLatLon0.09_PT070H.grib2 2026-04-29 15:03 495K
20260429T12Z_MSC_RDPS_SpecificHumidity_AGL-80m_RLatLon0.09_PT070H.grib2 2026-04-29 15:03 491K
20260429T12Z_MSC_RDPS_SpecificHumidity_IsbL-0001_RLatLon0.09_PT070H.grib2 2026-04-29 15:03 353K
20260429T12Z_MSC_RDPS_SpecificHumidity_IsbL-0005_RLatLon0.09_PT070H.grib2 2026-04-29 15:03 355K
20260429T12Z_MSC_RDPS_SpecificHumidity_IsbL-0010_RLatLon0.09_PT070H.grib2 2026-04-29 15:03 388K
20260429T12Z_MSC_RDPS_SpecificHumidity_IsbL-0020_RLatLon0.09_PT070H.grib2 2026-04-29 15:03 373K
20260429T12Z_MSC_RDPS_SpecificHumidity_IsbL-0030_RLatLon0.09_PT070H.grib2 2026-04-29 15:03 360K
20260429T12Z_MSC_RDPS_SpecificHumidity_IsbL-0050_RLatLon0.09_PT070H.grib2 2026-04-29 15:03 441K
20260429T12Z_MSC_RDPS_SpecificHumidity_IsbL-0100_RLatLon0.09_PT070H.grib2 2026-04-29 15:03 523K
20260429T12Z_MSC_RDPS_SpecificHumidity_IsbL-0150_RLatLon0.09_PT070H.grib2 2026-04-29 15:03 441K
20260429T12Z_MSC_RDPS_SpecificHumidity_IsbL-0175_RLatLon0.09_PT070H.grib2 2026-04-29 15:03 421K
20260429T12Z_MSC_RDPS_SpecificHumidity_IsbL-0200_RLatLon0.09_PT070H.grib2 2026-04-29 15:03 440K
20260429T12Z_MSC_RDPS_SpecificHumidity_IsbL-0225_RLatLon0.09_PT070H.grib2 2026-04-29 15:03 446K
20260429T12Z_MSC_RDPS_SpecificHumidity_IsbL-0250_RLatLon0.09_PT070H.grib2 2026-04-29 15:03 504K
20260429T12Z_MSC_RDPS_SpecificHumidity_IsbL-0275_RLatLon0.09_PT070H.grib2 2026-04-29 15:03 461K
20260429T12Z_MSC_RDPS_SpecificHumidity_IsbL-0300_RLatLon0.09_PT070H.grib2 2026-04-29 15:03 434K
20260429T12Z_MSC_RDPS_SpecificHumidity_IsbL-0350_RLatLon0.09_PT070H.grib2 2026-04-29 15:03 428K
20260429T12Z_MSC_RDPS_SpecificHumidity_IsbL-0400_RLatLon0.09_PT070H.grib2 2026-04-29 15:03 508K
20260429T12Z_MSC_RDPS_SpecificHumidity_IsbL-0450_RLatLon0.09_PT070H.grib2 2026-04-29 15:03 567K
20260429T12Z_MSC_RDPS_SpecificHumidity_IsbL-0500_RLatLon0.09_PT070H.grib2 2026-04-29 15:03 505K
20260429T12Z_MSC_RDPS_SpecificHumidity_IsbL-0550_RLatLon0.09_PT070H.grib2 2026-04-29 15:03 580K
20260429T12Z_MSC_RDPS_SpecificHumidity_IsbL-0600_RLatLon0.09_PT070H.grib2 2026-04-29 15:03 632K
20260429T12Z_MSC_RDPS_SpecificHumidity_IsbL-0650_RLatLon0.09_PT070H.grib2 2026-04-29 15:03 545K
20260429T12Z_MSC_RDPS_SpecificHumidity_IsbL-0700_RLatLon0.09_PT070H.grib2 2026-04-29 15:03 587K
20260429T12Z_MSC_RDPS_SpecificHumidity_IsbL-0750_RLatLon0.09_PT070H.grib2 2026-04-29 15:03 641K
20260429T12Z_MSC_RDPS_SpecificHumidity_IsbL-0800_RLatLon0.09_PT070H.grib2 2026-04-29 15:03 723K
20260429T12Z_MSC_RDPS_SpecificHumidity_IsbL-0850_RLatLon0.09_PT070H.grib2 2026-04-29 15:03 799K
20260429T12Z_MSC_RDPS_SpecificHumidity_IsbL-0875_RLatLon0.09_PT070H.grib2 2026-04-29 15:03 826K
20260429T12Z_MSC_RDPS_SpecificHumidity_IsbL-0900_RLatLon0.09_PT070H.grib2 2026-04-29 15:03 839K
20260429T12Z_MSC_RDPS_SpecificHumidity_IsbL-0925_RLatLon0.09_PT070H.grib2 2026-04-29 15:03 838K
20260429T12Z_MSC_RDPS_SpecificHumidity_IsbL-0950_RLatLon0.09_PT070H.grib2 2026-04-29 15:03 841K
20260429T12Z_MSC_RDPS_SpecificHumidity_IsbL-0970_RLatLon0.09_PT070H.grib2 2026-04-29 15:03 691K
20260429T12Z_MSC_RDPS_SpecificHumidity_IsbL-0985_RLatLon0.09_PT070H.grib2 2026-04-29 15:03 683K
20260429T12Z_MSC_RDPS_SpecificHumidity_IsbL-1000_RLatLon0.09_PT070H.grib2 2026-04-29 15:03 678K
20260429T12Z_MSC_RDPS_SpecificHumidity_IsbL-1015_RLatLon0.09_PT070H.grib2 2026-04-29 15:03 666K
20260429T12Z_MSC_RDPS_SpecificHumidity_Sfc_RLatLon0.09_PT070H.grib2 2026-04-29 15:03 296K
20260429T12Z_MSC_RDPS_StormRelativeHelicity_EtaL-10000_RLatLon0.09_PT070H.grib2 2026-04-29 15:03 1.1M
20260429T12Z_MSC_RDPS_StormSeverityIndex_EtaL-10000_RLatLon0.09_PT070H.grib2 2026-04-29 15:03 1.2M
20260429T12Z_MSC_RDPS_Thickness_IsbL-0850to0700_RLatLon0.09_PT070H.grib2 2026-04-29 15:03 177K
20260429T12Z_MSC_RDPS_Thickness_IsbL-1000to0500_RLatLon0.09_PT070H.grib2 2026-04-29 15:03 196K
20260429T12Z_MSC_RDPS_Thickness_IsbL-1000to0850_RLatLon0.09_PT070H.grib2 2026-04-29 15:03 262K
20260429T12Z_MSC_RDPS_TotalCloudCover_Sfc_RLatLon0.09_PT070H.grib2 2026-04-29 15:03 658K
20260429T12Z_MSC_RDPS_TotalTotalsIndex_Sfc_RLatLon0.09_PT070H.grib2 2026-04-29 15:03 2.4M
20260429T12Z_MSC_RDPS_UVIndex-ClearSky_Sfc_RLatLon0.09_PT070H.grib2 2026-04-29 15:03 96K
20260429T12Z_MSC_RDPS_UVIndex_Sfc_RLatLon0.09_PT070H.grib2 2026-04-29 15:03 203K
20260429T12Z_MSC_RDPS_UpwardLongwaveRadiationFlux_NTAtm_RLatLon0.09_PT070H.grib2 2026-04-29 15:03 483K
20260429T12Z_MSC_RDPS_UpwardShortwaveRadiationFlux_NTAtm_RLatLon0.09_PT070H.grib2 2026-04-29 15:03 198K
20260429T12Z_MSC_RDPS_VerticalVelocity_IsbL-0250_RLatLon0.09_PT070H.grib2 2026-04-29 15:03 547K
20260429T12Z_MSC_RDPS_VerticalVelocity_IsbL-0500_RLatLon0.09_PT070H.grib2 2026-04-29 15:03 541K
20260429T12Z_MSC_RDPS_VerticalVelocity_IsbL-0700_RLatLon0.09_PT070H.grib2 2026-04-29 15:03 575K
20260429T12Z_MSC_RDPS_VerticalVelocity_IsbL-0850_RLatLon0.09_PT070H.grib2 2026-04-29 15:03 711K
20260429T12Z_MSC_RDPS_VerticalWindShear_EtaL-6500_RLatLon0.09_PT070H.grib2 2026-04-29 15:03 1.2M
20260429T12Z_MSC_RDPS_WindChill_Sfc_RLatLon0.09_PT070H.grib2 2026-04-29 15:03 1.2M
20260429T12Z_MSC_RDPS_WindDir_AGL-10m_RLatLon0.09_PT070H.grib2 2026-04-29 15:03 971K
20260429T12Z_MSC_RDPS_WindDir_AGL-120m_RLatLon0.09_PT070H.grib2 2026-04-29 15:03 603K
20260429T12Z_MSC_RDPS_WindDir_AGL-40m_RLatLon0.09_PT070H.grib2 2026-04-29 15:03 637K
20260429T12Z_MSC_RDPS_WindDir_AGL-80m_RLatLon0.09_PT070H.grib2 2026-04-29 15:03 616K
20260429T12Z_MSC_RDPS_WindDir_IsbL-0001_RLatLon0.09_PT070H.grib2 2026-04-29 15:03 311K
20260429T12Z_MSC_RDPS_WindDir_IsbL-0005_RLatLon0.09_PT070H.grib2 2026-04-29 15:03 364K
20260429T12Z_MSC_RDPS_WindDir_IsbL-0010_RLatLon0.09_PT070H.grib2 2026-04-29 15:03 383K
20260429T12Z_MSC_RDPS_WindDir_IsbL-0020_RLatLon0.09_PT070H.grib2 2026-04-29 15:03 430K
20260429T12Z_MSC_RDPS_WindDir_IsbL-0030_RLatLon0.09_PT070H.grib2 2026-04-29 15:03 408K
20260429T12Z_MSC_RDPS_WindDir_IsbL-0050_RLatLon0.09_PT070H.grib2 2026-04-29 15:03 430K
20260429T12Z_MSC_RDPS_WindDir_IsbL-0100_RLatLon0.09_PT070H.grib2 2026-04-29 15:03 414K
20260429T12Z_MSC_RDPS_WindDir_IsbL-0150_RLatLon0.09_PT070H.grib2 2026-04-29 15:03 402K
20260429T12Z_MSC_RDPS_WindDir_IsbL-0175_RLatLon0.09_PT070H.grib2 2026-04-29 15:03 424K
20260429T12Z_MSC_RDPS_WindDir_IsbL-0200_RLatLon0.09_PT070H.grib2 2026-04-29 15:03 437K
20260429T12Z_MSC_RDPS_WindDir_IsbL-0225_RLatLon0.09_PT070H.grib2 2026-04-29 15:03 446K
20260429T12Z_MSC_RDPS_WindDir_IsbL-0250_RLatLon0.09_PT070H.grib2 2026-04-29 15:03 448K
20260429T12Z_MSC_RDPS_WindDir_IsbL-0275_RLatLon0.09_PT070H.grib2 2026-04-29 15:03 472K
20260429T12Z_MSC_RDPS_WindDir_IsbL-0300_RLatLon0.09_PT070H.grib2 2026-04-29 15:03 471K
20260429T12Z_MSC_RDPS_WindDir_IsbL-0350_RLatLon0.09_PT070H.grib2 2026-04-29 15:03 497K
20260429T12Z_MSC_RDPS_WindDir_IsbL-0400_RLatLon0.09_PT070H.grib2 2026-04-29 15:03 520K
20260429T12Z_MSC_RDPS_WindDir_IsbL-0450_RLatLon0.09_PT070H.grib2 2026-04-29 15:03 532K
20260429T12Z_MSC_RDPS_WindDir_IsbL-0500_RLatLon0.09_PT070H.grib2 2026-04-29 15:03 545K
20260429T12Z_MSC_RDPS_WindDir_IsbL-0550_RLatLon0.09_PT070H.grib2 2026-04-29 15:03 560K
20260429T12Z_MSC_RDPS_WindDir_IsbL-0600_RLatLon0.09_PT070H.grib2 2026-04-29 15:03 584K
20260429T12Z_MSC_RDPS_WindDir_IsbL-0650_RLatLon0.09_PT070H.grib2 2026-04-29 15:03 619K
20260429T12Z_MSC_RDPS_WindDir_IsbL-0700_RLatLon0.09_PT070H.grib2 2026-04-29 15:03 659K
20260429T12Z_MSC_RDPS_WindDir_IsbL-0750_RLatLon0.09_PT070H.grib2 2026-04-29 15:03 705K
20260429T12Z_MSC_RDPS_WindDir_IsbL-0800_RLatLon0.09_PT070H.grib2 2026-04-29 15:03 771K
20260429T12Z_MSC_RDPS_WindDir_IsbL-0850_RLatLon0.09_PT070H.grib2 2026-04-29 15:03 858K
20260429T12Z_MSC_RDPS_WindDir_IsbL-0875_RLatLon0.09_PT070H.grib2 2026-04-29 15:03 893K
20260429T12Z_MSC_RDPS_WindDir_IsbL-0900_RLatLon0.09_PT070H.grib2 2026-04-29 15:03 911K
20260429T12Z_MSC_RDPS_WindDir_IsbL-0925_RLatLon0.09_PT070H.grib2 2026-04-29 15:03 918K
20260429T12Z_MSC_RDPS_WindDir_IsbL-0950_RLatLon0.09_PT070H.grib2 2026-04-29 15:03 914K
20260429T12Z_MSC_RDPS_WindDir_IsbL-0970_RLatLon0.09_PT070H.grib2 2026-04-29 15:03 921K
20260429T12Z_MSC_RDPS_WindDir_IsbL-0985_RLatLon0.09_PT070H.grib2 2026-04-29 15:03 931K
20260429T12Z_MSC_RDPS_WindDir_IsbL-1000_RLatLon0.09_PT070H.grib2 2026-04-29 15:03 944K
20260429T12Z_MSC_RDPS_WindDir_IsbL-1015_RLatLon0.09_PT070H.grib2 2026-04-29 15:03 961K
20260429T12Z_MSC_RDPS_WindGust-Max_AGL-10m_RLatLon0.09_PT070H.grib2 2026-04-29 15:03 967K
20260429T12Z_MSC_RDPS_WindGust-Min_AGL-10m_RLatLon0.09_PT070H.grib2 2026-04-29 15:03 1.0M
20260429T12Z_MSC_RDPS_WindGust_AGL-10m_RLatLon0.09_PT070H.grib2 2026-04-29 15:03 1.0M
20260429T12Z_MSC_RDPS_WindSpeed_AGL-10m_RLatLon0.09_PT070H.grib2 2026-04-29 15:03 847K
20260429T12Z_MSC_RDPS_WindSpeed_AGL-120m_RLatLon0.09_PT070H.grib2 2026-04-29 15:03 547K
20260429T12Z_MSC_RDPS_WindSpeed_AGL-40m_RLatLon0.09_PT070H.grib2 2026-04-29 15:03 548K
20260429T12Z_MSC_RDPS_WindSpeed_AGL-80m_RLatLon0.09_PT070H.grib2 2026-04-29 15:03 547K
20260429T12Z_MSC_RDPS_WindSpeed_IsbL-0001_RLatLon0.09_PT070H.grib2 2026-04-29 15:03 252K
20260429T12Z_MSC_RDPS_WindSpeed_IsbL-0005_RLatLon0.09_PT070H.grib2 2026-04-29 15:03 382K
20260429T12Z_MSC_RDPS_WindSpeed_IsbL-0010_RLatLon0.09_PT070H.grib2 2026-04-29 15:03 397K
20260429T12Z_MSC_RDPS_WindSpeed_IsbL-0020_RLatLon0.09_PT070H.grib2 2026-04-29 15:03 319K
20260429T12Z_MSC_RDPS_WindSpeed_IsbL-0030_RLatLon0.09_PT070H.grib2 2026-04-29 15:03 315K
20260429T12Z_MSC_RDPS_WindSpeed_IsbL-0050_RLatLon0.09_PT070H.grib2 2026-04-29 15:03 451K
20260429T12Z_MSC_RDPS_WindSpeed_IsbL-0100_RLatLon0.09_PT070H.grib2 2026-04-29 15:03 476K
20260429T12Z_MSC_RDPS_WindSpeed_IsbL-0150_RLatLon0.09_PT070H.grib2 2026-04-29 15:03 378K
20260429T12Z_MSC_RDPS_WindSpeed_IsbL-0175_RLatLon0.09_PT070H.grib2 2026-04-29 15:03 422K
20260429T12Z_MSC_RDPS_WindSpeed_IsbL-0200_RLatLon0.09_PT070H.grib2 2026-04-29 15:03 438K
20260429T12Z_MSC_RDPS_WindSpeed_IsbL-0225_RLatLon0.09_PT070H.grib2 2026-04-29 15:03 444K
20260429T12Z_MSC_RDPS_WindSpeed_IsbL-0250_RLatLon0.09_PT070H.grib2 2026-04-29 15:03 446K
20260429T12Z_MSC_RDPS_WindSpeed_IsbL-0275_RLatLon0.09_PT070H.grib2 2026-04-29 15:03 463K
20260429T12Z_MSC_RDPS_WindSpeed_IsbL-0300_RLatLon0.09_PT070H.grib2 2026-04-29 15:03 462K
20260429T12Z_MSC_RDPS_WindSpeed_IsbL-0350_RLatLon0.09_PT070H.grib2 2026-04-29 15:03 473K
20260429T12Z_MSC_RDPS_WindSpeed_IsbL-0400_RLatLon0.09_PT070H.grib2 2026-04-29 15:03 477K
20260429T12Z_MSC_RDPS_WindSpeed_IsbL-0450_RLatLon0.09_PT070H.grib2 2026-04-29 15:03 461K
20260429T12Z_MSC_RDPS_WindSpeed_IsbL-0500_RLatLon0.09_PT070H.grib2 2026-04-29 15:03 462K
20260429T12Z_MSC_RDPS_WindSpeed_IsbL-0550_RLatLon0.09_PT070H.grib2 2026-04-29 15:03 584K
20260429T12Z_MSC_RDPS_WindSpeed_IsbL-0600_RLatLon0.09_PT070H.grib2 2026-04-29 15:03 593K
20260429T12Z_MSC_RDPS_WindSpeed_IsbL-0650_RLatLon0.09_PT070H.grib2 2026-04-29 15:03 610K
20260429T12Z_MSC_RDPS_WindSpeed_IsbL-0700_RLatLon0.09_PT070H.grib2 2026-04-29 15:03 675K
20260429T12Z_MSC_RDPS_WindSpeed_IsbL-0750_RLatLon0.09_PT070H.grib2 2026-04-29 15:03 707K
20260429T12Z_MSC_RDPS_WindSpeed_IsbL-0800_RLatLon0.09_PT070H.grib2 2026-04-29 15:03 709K
20260429T12Z_MSC_RDPS_WindSpeed_IsbL-0850_RLatLon0.09_PT070H.grib2 2026-04-29 15:03 770K
20260429T12Z_MSC_RDPS_WindSpeed_IsbL-0875_RLatLon0.09_PT070H.grib2 2026-04-29 15:03 795K
20260429T12Z_MSC_RDPS_WindSpeed_IsbL-0900_RLatLon0.09_PT070H.grib2 2026-04-29 15:03 810K
20260429T12Z_MSC_RDPS_WindSpeed_IsbL-0925_RLatLon0.09_PT070H.grib2 2026-04-29 15:03 868K
20260429T12Z_MSC_RDPS_WindSpeed_IsbL-0950_RLatLon0.09_PT070H.grib2 2026-04-29 15:03 869K
20260429T12Z_MSC_RDPS_WindSpeed_IsbL-0970_RLatLon0.09_PT070H.grib2 2026-04-29 15:03 868K
20260429T12Z_MSC_RDPS_WindSpeed_IsbL-0985_RLatLon0.09_PT070H.grib2 2026-04-29 15:03 862K
20260429T12Z_MSC_RDPS_WindSpeed_IsbL-1000_RLatLon0.09_PT070H.grib2 2026-04-29 15:03 856K
20260429T12Z_MSC_RDPS_WindSpeed_IsbL-1015_RLatLon0.09_PT070H.grib2 2026-04-29 15:03 846K
20260429T12Z_MSC_RDPS_WindU_AGL-10m_RLatLon0.09_PT070H.grib2 2026-04-29 15:03 434K
20260429T12Z_MSC_RDPS_WindU_AGL-120m_RLatLon0.09_PT070H.grib2 2026-04-29 15:03 541K
20260429T12Z_MSC_RDPS_WindU_AGL-40m_RLatLon0.09_PT070H.grib2 2026-04-29 15:03 543K
20260429T12Z_MSC_RDPS_WindU_AGL-80m_RLatLon0.09_PT070H.grib2 2026-04-29 15:03 542K
20260429T12Z_MSC_RDPS_WindU_IsbL-0001_RLatLon0.09_PT070H.grib2 2026-04-29 15:03 291K
20260429T12Z_MSC_RDPS_WindU_IsbL-0005_RLatLon0.09_PT070H.grib2 2026-04-29 15:03 283K
20260429T12Z_MSC_RDPS_WindU_IsbL-0010_RLatLon0.09_PT070H.grib2 2026-04-29 15:03 295K
20260429T12Z_MSC_RDPS_WindU_IsbL-0020_RLatLon0.09_PT070H.grib2 2026-04-29 15:03 310K
20260429T12Z_MSC_RDPS_WindU_IsbL-0030_RLatLon0.09_PT070H.grib2 2026-04-29 15:03 349K
20260429T12Z_MSC_RDPS_WindU_IsbL-0050_RLatLon0.09_PT070H.grib2 2026-04-29 15:03 341K
20260429T12Z_MSC_RDPS_WindU_IsbL-0100_RLatLon0.09_PT070H.grib2 2026-04-29 15:03 430K
20260429T12Z_MSC_RDPS_WindU_IsbL-0150_RLatLon0.09_PT070H.grib2 2026-04-29 15:03 392K
20260429T12Z_MSC_RDPS_WindU_IsbL-0175_RLatLon0.09_PT070H.grib2 2026-04-29 15:03 415K
20260429T12Z_MSC_RDPS_WindU_IsbL-0200_RLatLon0.09_PT070H.grib2 2026-04-29 15:03 334K
20260429T12Z_MSC_RDPS_WindU_IsbL-0225_RLatLon0.09_PT070H.grib2 2026-04-29 15:03 337K
20260429T12Z_MSC_RDPS_WindU_IsbL-0250_RLatLon0.09_PT070H.grib2 2026-04-29 15:03 338K
20260429T12Z_MSC_RDPS_WindU_IsbL-0275_RLatLon0.09_PT070H.grib2 2026-04-29 15:03 351K
20260429T12Z_MSC_RDPS_WindU_IsbL-0300_RLatLon0.09_PT070H.grib2 2026-04-29 15:03 348K
20260429T12Z_MSC_RDPS_WindU_IsbL-0350_RLatLon0.09_PT070H.grib2 2026-04-29 15:03 358K
20260429T12Z_MSC_RDPS_WindU_IsbL-0400_RLatLon0.09_PT070H.grib2 2026-04-29 15:03 466K
20260429T12Z_MSC_RDPS_WindU_IsbL-0450_RLatLon0.09_PT070H.grib2 2026-04-29 15:03 466K
20260429T12Z_MSC_RDPS_WindU_IsbL-0500_RLatLon0.09_PT070H.grib2 2026-04-29 15:03 469K
20260429T12Z_MSC_RDPS_WindU_IsbL-0550_RLatLon0.09_PT070H.grib2 2026-04-29 15:03 474K
20260429T12Z_MSC_RDPS_WindU_IsbL-0600_RLatLon0.09_PT070H.grib2 2026-04-29 15:03 464K
20260429T12Z_MSC_RDPS_WindU_IsbL-0650_RLatLon0.09_PT070H.grib2 2026-04-29 15:03 480K
20260429T12Z_MSC_RDPS_WindU_IsbL-0700_RLatLon0.09_PT070H.grib2 2026-04-29 15:03 501K
20260429T12Z_MSC_RDPS_WindU_IsbL-0750_RLatLon0.09_PT070H.grib2 2026-04-29 15:03 529K
20260429T12Z_MSC_RDPS_WindU_IsbL-0800_RLatLon0.09_PT070H.grib2 2026-04-29 15:03 571K
20260429T12Z_MSC_RDPS_WindU_IsbL-0850_RLatLon0.09_PT070H.grib2 2026-04-29 15:03 625K
20260429T12Z_MSC_RDPS_WindU_IsbL-0875_RLatLon0.09_PT070H.grib2 2026-04-29 15:03 646K
20260429T12Z_MSC_RDPS_WindU_IsbL-0900_RLatLon0.09_PT070H.grib2 2026-04-29 15:03 657K
20260429T12Z_MSC_RDPS_WindU_IsbL-0925_RLatLon0.09_PT070H.grib2 2026-04-29 15:03 664K
20260429T12Z_MSC_RDPS_WindU_IsbL-0950_RLatLon0.09_PT070H.grib2 2026-04-29 15:03 661K
20260429T12Z_MSC_RDPS_WindU_IsbL-0970_RLatLon0.09_PT070H.grib2 2026-04-29 15:03 662K
20260429T12Z_MSC_RDPS_WindU_IsbL-0985_RLatLon0.09_PT070H.grib2 2026-04-29 15:03 797K
20260429T12Z_MSC_RDPS_WindU_IsbL-1000_RLatLon0.09_PT070H.grib2 2026-04-29 15:03 791K
20260429T12Z_MSC_RDPS_WindU_IsbL-1015_RLatLon0.09_PT070H.grib2 2026-04-29 15:03 830K
20260429T12Z_MSC_RDPS_WindV_AGL-10m_RLatLon0.09_PT070H.grib2 2026-04-29 15:03 435K
20260429T12Z_MSC_RDPS_WindV_AGL-120m_RLatLon0.09_PT070H.grib2 2026-04-29 15:03 540K
20260429T12Z_MSC_RDPS_WindV_AGL-40m_RLatLon0.09_PT070H.grib2 2026-04-29 15:03 543K
20260429T12Z_MSC_RDPS_WindV_AGL-80m_RLatLon0.09_PT070H.grib2 2026-04-29 15:03 541K
20260429T12Z_MSC_RDPS_WindV_IsbL-0001_RLatLon0.09_PT070H.grib2 2026-04-29 15:03 244K
20260429T12Z_MSC_RDPS_WindV_IsbL-0005_RLatLon0.09_PT070H.grib2 2026-04-29 15:03 285K
20260429T12Z_MSC_RDPS_WindV_IsbL-0010_RLatLon0.09_PT070H.grib2 2026-04-29 15:03 298K
20260429T12Z_MSC_RDPS_WindV_IsbL-0020_RLatLon0.09_PT070H.grib2 2026-04-29 15:03 352K
20260429T12Z_MSC_RDPS_WindV_IsbL-0030_RLatLon0.09_PT070H.grib2 2026-04-29 15:03 311K
20260429T12Z_MSC_RDPS_WindV_IsbL-0050_RLatLon0.09_PT070H.grib2 2026-04-29 15:03 340K
20260429T12Z_MSC_RDPS_WindV_IsbL-0100_RLatLon0.09_PT070H.grib2 2026-04-29 15:03 427K
20260429T12Z_MSC_RDPS_WindV_IsbL-0150_RLatLon0.09_PT070H.grib2 2026-04-29 15:03 393K
20260429T12Z_MSC_RDPS_WindV_IsbL-0175_RLatLon0.09_PT070H.grib2 2026-04-29 15:03 414K
20260429T12Z_MSC_RDPS_WindV_IsbL-0200_RLatLon0.09_PT070H.grib2 2026-04-29 15:03 334K
20260429T12Z_MSC_RDPS_WindV_IsbL-0225_RLatLon0.09_PT070H.grib2 2026-04-29 15:03 337K
20260429T12Z_MSC_RDPS_WindV_IsbL-0250_RLatLon0.09_PT070H.grib2 2026-04-29 15:03 364K
20260429T12Z_MSC_RDPS_WindV_IsbL-0275_RLatLon0.09_PT070H.grib2 2026-04-29 15:03 375K
20260429T12Z_MSC_RDPS_WindV_IsbL-0300_RLatLon0.09_PT070H.grib2 2026-04-29 15:03 373K
20260429T12Z_MSC_RDPS_WindV_IsbL-0350_RLatLon0.09_PT070H.grib2 2026-04-29 15:03 357K
20260429T12Z_MSC_RDPS_WindV_IsbL-0400_RLatLon0.09_PT070H.grib2 2026-04-29 15:03 361K
20260429T12Z_MSC_RDPS_WindV_IsbL-0450_RLatLon0.09_PT070H.grib2 2026-04-29 15:03 464K
20260429T12Z_MSC_RDPS_WindV_IsbL-0500_RLatLon0.09_PT070H.grib2 2026-04-29 15:03 467K
20260429T12Z_MSC_RDPS_WindV_IsbL-0550_RLatLon0.09_PT070H.grib2 2026-04-29 15:03 471K
20260429T12Z_MSC_RDPS_WindV_IsbL-0600_RLatLon0.09_PT070H.grib2 2026-04-29 15:03 462K
20260429T12Z_MSC_RDPS_WindV_IsbL-0650_RLatLon0.09_PT070H.grib2 2026-04-29 15:03 478K
20260429T12Z_MSC_RDPS_WindV_IsbL-0700_RLatLon0.09_PT070H.grib2 2026-04-29 15:03 498K
20260429T12Z_MSC_RDPS_WindV_IsbL-0750_RLatLon0.09_PT070H.grib2 2026-04-29 15:03 649K
20260429T12Z_MSC_RDPS_WindV_IsbL-0800_RLatLon0.09_PT070H.grib2 2026-04-29 15:03 694K
20260429T12Z_MSC_RDPS_WindV_IsbL-0850_RLatLon0.09_PT070H.grib2 2026-04-29 15:03 622K
20260429T12Z_MSC_RDPS_WindV_IsbL-0875_RLatLon0.09_PT070H.grib2 2026-04-29 15:03 644K
20260429T12Z_MSC_RDPS_WindV_IsbL-0900_RLatLon0.09_PT070H.grib2 2026-04-29 15:03 656K
20260429T12Z_MSC_RDPS_WindV_IsbL-0925_RLatLon0.09_PT070H.grib2 2026-04-29 15:03 662K
20260429T12Z_MSC_RDPS_WindV_IsbL-0950_RLatLon0.09_PT070H.grib2 2026-04-29 15:03 661K
20260429T12Z_MSC_RDPS_WindV_IsbL-0970_RLatLon0.09_PT070H.grib2 2026-04-29 15:03 802K
20260429T12Z_MSC_RDPS_WindV_IsbL-0985_RLatLon0.09_PT070H.grib2 2026-04-29 15:03 797K
20260429T12Z_MSC_RDPS_WindV_IsbL-1000_RLatLon0.09_PT070H.grib2 2026-04-29 15:03 790K
20260429T12Z_MSC_RDPS_WindV_IsbL-1015_RLatLon0.09_PT070H.grib2 2026-04-29 15:03 783K